Tracking 21094 objects as of 14-Aug-2020
HD Live streaming from Space Station
objects crossing your sky now
Track the most recent launched group of Starlink satellites

BEIDOU 3M23

Track BEIDOU 3M23 now!
BEIDOU 3M23 is classified as:


NORAD ID: 44542
Int'l Code: 2019-061A
Perigee: 21,511.2 km
Apogee: 21,559.1 km
Inclination: 54.8 °
Period: 773.2 minutes
Semi major axis: 27906 km
RCS: Unknown
Launch date: September 22, 2019
Source: People's Republic of China (PRC)
Launch site: Xichang Space Center, China (XSC)
aabbcc
Your satellite tracking list
Your tracking list is empty




NASA's NSSDC Master Catalog

Two Line Element Set (TLE):
1 44542U 19061A   20224.39294257  .00000054  00000-0  10000-3 0  9990
2 44542  54.8447 255.0921 0008574 305.9329 149.3596  1.86231244  6017
Source of the keplerian elements: AFSPC